Regional Weather Roundup
Issued by NWS

Home | Current Version | Previous Version | Text Only | Print | Product List | Glossary Off
Versions: 1 2 3 4 5 6 7 8 9 10 11 12 13 14 15 16 17 18 19 20 21 22 23 24 25 26 27 28 29 30 31 32 33 34 35 36 37 38 39 40 41 42 43 44 45 46 47 48 49 50

666
ASUS45 KBOU 202307
RWRCO

WEATHER ROUNDUP FOR COLORADO
NATIONAL WEATHER SERVICE DENVER/BOULDER CO
500 PM MDT FRI OCT 20 2017

NOTE: "FAIR" INDICATES FEW OR NO CLOUDS BELOW 12000 FEET WITH NO
SIGNIFICANT WEATHER AND/OR OBSTRUCTIONS TO VISIBILITY.

COZ001>005-013-030-031-210000-
...NORTHWEST COLORADO...

CITY           SKY/WX    TMP DP  RH WIND       PRES   REMARKS
CRAIG          FAIR      67  25  20 SW23G30   29.62F
HAYDEN         FAIR      64  26  23 SW20G26   29.64F
MEEKER         PTSUNNY   67  27  22 S16       29.64F
RABBIT EARS PA CLOUDY    45  27  49 SW9G29    29.85F
STEAMBOAT SPGS FAIR      63  23  22 SW20G28   29.64F
WALDEN         NOT AVBL
$$

COZ006>008-011-210000-
...WEST CENTRAL VALLEYS...

CITY           SKY/WX    TMP DP  RH WIND       PRES   REMARKS
GRAND JUNCTION FAIR      74  26  16 SW12      29.59F
MONTROSE       FAIR      70  22  16 SW14G29   29.70F
EAGLE          FAIR      66  24  20 SW18G29   29.69F
RIFLE          CLOUDY    70  24  17 SW17G26   29.63F
DELTA          PTSUNNY   73  23  15 SW21G29   29.66S
NUCLA          NOT AVBL
$$

COZ017>023-064>068-210000-
...SOUTHWEST COLORADO...

CITY           SKY/WX    TMP DP  RH WIND       PRES   REMARKS
DURANGO        FAIR      67  23  19 SW18G24   29.82F
CORTEZ         FAIR      69  26  20 SW13      29.75F
PAGOSA SPRINGS FAIR      63  20  19 SW15G22   29.90F
TELLURIDE      NOT AVBL
WOLF CREEK PAS FAIR      36  23  60 S29G43    30.09F
$$

COZ009-010-012-014-032>034-037-058>063-210000-
...CENTRAL COLORADO...

CITY           SKY/WX    TMP DP  RH WIND       PRES   REMARKS
ASPEN          FAIR      61  20  20 W10G24    29.75F
BUENA VISTA    FAIR      65  10  12 SW6G22    29.74F
COPPER MTN     FAIR      45  18  33 W10G23    29.98F
BERTHOUD PASS  FAIR      37  28  70 S9G28     29.97F
COTTONWOOD PAS FAIR      61  10  13 W12G25    29.86F
GUNNISON       FAIR      62  19  19 W14G26    29.77S
KREMMLING      FAIR      64  19  17 SW18G33   29.72S
LEADVILLE      FAIR      53  13  20 SW18G28   29.85F
MONARCH PASS   FAIR      45  18  33 SW28G38   30.08F
SALIDA         FAIR      68  20  16 W9        29.80F
SUNLIGHT       FAIR      43  21  42 SW15G30   29.92S
WILKERSON PASS FAIR      50  12  22 SW9G26    29.96F
$$

COZ069>075-210000-
...SAN LUIS VALLEY/SANGRE DE CRISTO MOUNTAINS...

CITY           SKY/WX    TMP DP  RH WIND       PRES   REMARKS
ALAMOSA        FAIR      64  22  20 SW23G30   29.84F
DEL NORTE      FAIR      60  25  26 SW21G29   29.85F
LA VETA PASS   FAIR      48  23  37 S35G54    30.01F
SAGUACHE       FAIR      63  23  22 SW20      29.79F
$$

COZ035-036-038>040-210000-
...NORTHERN COLORADO FRONT RANGE...

CITY           SKY/WX    TMP DP  RH WIND       PRES   REMARKS
DENVER INTL AP FAIR      76  30  18 SE7       29.53F
DMNS CITY PARK   N/A     76  25  15 N9G21     29.52R
AURORA         MOSUNNY   76  22  13 SW22G32   29.53F
FRONT RANGE AP PTSUNNY   75  27  16 SE10      29.55F
ERIE MUNI ARPT FAIR      75  28  17 NE6       29.58F
BOULDER MUN AP FAIR      75  30  19 CALM      29.54F
CENTENNIAL     FAIR      74  18  12 SW22G30   29.56F
BROOMFIELD     PTSUNNY   75  28  17 CALM      29.56F
FORT COLLINS   FAIR      76  34  21 S12       29.53F
LONGMONT       FAIR      77  34  20 E5        29.54F
$$

COZ041-046-047-076>085-087-088-210000-
...PIKES PEAK/PALMER DIVIDE AND SOUTHERN FOOTHILLS...

CITY           SKY/WX    TMP DP  RH WIND       PRES   REMARKS
COLO. SPRINGS  FAIR      73  28  18 S17G24    29.65F
A. F. ACADEMY  PTSUNNY   70  24  18 S10       29.65F
SCHRIEVER AFB  FAIR      71  25  18 SW14      29.66F
CHEYENNE MTN   FAIR      65  23  19 S12       29.64F
ELLICOTT       FAIR     N/A N/A N/A SW12G21   29.64F
FALCON         FAIR      70  22  16 SW15G26   29.70S
FORT CARSON    FAIR      74  27  17 S10       29.62F
LIMON          FAIR      74  29  19 S21G28    29.59F
MONUMENT HILL  FAIR      63  27  25 SW10      29.69F
CANON CITY     FAIR      79  27  14 SW16      29.59F
WALSENBURG     FAIR      72  25  17 SW20G39   29.69S
TRINIDAD       FAIR      71  29  21 SW18G29   29.70F
$$

COZ042>045-048>051-090-091-210000-
...NORTHEAST COLORADO...

CITY           SKY/WX    TMP DP  RH WIND       PRES   REMARKS
GREELEY ARPT   FAIR      78  34  20 S9        29.52F
AKRON          FAIR      74  33  22 E9        29.54F
BURLINGTON     FAIR      78  37  22 S21G31    29.56F
WRAY           NOT AVBL
YUMA           NOT AVBL
STERLING       NOT AVBL
HOLYOKE        FAIR      79  36  21 S5        29.52F
FORT MORGAN    FAIR      74  28  18 SE12      29.52F
$$

COZ086-089-092>099-210000-
...SOUTHEAST COLORADO...

CITY           SKY/WX    TMP DP  RH WIND       PRES   REMARKS
PUEBLO         FAIR      79  29  16 SW14      29.56F
LA JUNTA       FAIR      80  30  16 SW14      29.57F
LAMAR          FAIR      83  35  18 S14       29.53F
SPRINGFIELD      N/A     76  43  30 S22G35    29.63F
$$




USA.gov is the U.S. government's official web portal to all federal, state and local government web resources and services.